Regional Weather Roundup
Issued by NWS

Home | Current Version | Previous Version | Text Only | Print | Product List | Glossary Off
Versions: 1 2 3 4 5 6 7 8 9 10 11 12 13 14 15 16 17 18 19 20 21 22 23 24 25 26 27 28 29 30 31 32 33 34 35 36 37 38 39 40 41 42 43 44 45 46 47 48 49 50

369
ASUS44 KLIX 191801
RWRLA
LOUISIANA WEATHER ROUNDUP
NATIONAL WEATHER SERVICE NEW ORLEANS LA
1200 PM CST FRI DEC 19 2014

NOTE: "FAIR" INDICATES FEW OR NO CLOUDS BELOW 12,000 FEET WITH NO
      SIGNIFICANT WEATHER AND/OR OBSTRUCTIONS TO VISIBILITY.
      SKY/WX - SKY CONDITION AND SIGNIFICANT WEATHER.
      TMP - AIR TEMPERATURE.    DP   - DEWPOINT TEMPERATURE.
      RH  - RELATIVE HUMIDITY.  PRES - PRESSURE.
      HX  - HEAT INDEX.         WCI  - WIND CHILL INDEX.

*  THESE STATIONS ARE NOT NWS OR FAA STATIONS AND ARE NOT UNDER
   NWS QUALITY CONTROL.

LAZ040-048-061>063-065-066-069-191900-
SOUTHEAST LOUISIANA

CITY           SKY/WX    TMP DP  RH WIND       PRES   REMARKS
N.O. AUDUBON   NOT AVBL
N.O. INTL ARPT RAIN      55  52  89 SE5       30.10F FOG
6HR MIN TEMP:  54; 6HR MAX TEMP:  57; 6HR PCP:  0.08;

N.O. LAKEFRONT HVY RAIN  55  51  86 E13       30.10F FOG
6HR MIN TEMP:  55; 6HR MAX TEMP:  58; 6HR PCP:  0.14;

N.O. DOWNTOWN* MOCLDY    54  46  76 E8        30.10F
6HR MIN TEMP:  54; 6HR MAX TEMP:  57; 6HR PCP:  0.12;

SLIDELL        LGT RAIN  50  48  93 NE6       30.09F FOG
6HR MIN TEMP:  50; 6HR MAX TEMP:  54; 6HR PCP:  0.43;

BATON ROUGE    LGT RAIN  55  53  93 E9        30.08F
6HR MIN TEMP:  53; 6HR MAX TEMP:  56; 6HR PCP:  0.52;

BOOTHVILLE     LGT RAIN  58  56  93 E14       30.08F
6HR MIN TEMP:  57; 6HR MAX TEMP:  61; 6HR PCP:  0.10;

BELLE CHASSE   RAIN      54  52  93 NE8       30.09F FOG
6HR MIN TEMP:  54; 6HR MAX TEMP:  59; 6HR PCP:  0.07;

BOGALUSA*      LGT RAIN  51  45  80 E5        30.11F
6HR MIN TEMP:  49; 6HR MAX TEMP:  53; 6HR PCP:  0.72;

GALLIANO*      NOT AVBL
NEW ROADS*     NOT AVBL
GONZALES*      NOT AVBL
HAMMOND*       NOT AVBL
HOUMA*         CLOUDY    55  55 100 NE12      30.08F FOG
PORT FOURCHON* CLOUDY    59  57  94 E14G25    30.10F

$$

LAZ041-044-053-054-191900-
SOUTHWEST LOUISIANA

CITY           SKY/WX    TMP DP  RH WIND       PRES   REMARKS
LAKE CHARLES   LGT RAIN  57  55  93 NE12      30.06F
6HR MIN TEMP:  56; 6HR MAX TEMP:  58; 6HR PCP:  0.12;

LAFAYETTE      LGT RAIN  57  55  93 NE8       30.07F
6HR MIN TEMP:  55; 6HR MAX TEMP:  58; 6HR PCP:  0.14;

PATTERSON      CLOUDY    55  54  94 E10       30.07F
6HR MIN TEMP:  55; 6HR MAX TEMP:  57;

SALT POINT       N/A     60  55  83 VRB7      30.04F
6HR MIN TEMP:  59; 6HR MAX TEMP:  63; 6HR PCP:  0.12;

NEW IBERIA     CLOUDY    58  55  90 E7        30.07F
6HR MIN TEMP:  57; 6HR MAX TEMP:  59; 6HR PCP:  0.22;

CHENAULT AIRPK CLOUDY    55  55 100 NE8       30.07F

$$

LAZ027-028-191900-
CENTRAL LOUISIANA

CITY           SKY/WX    TMP DP  RH WIND       PRES   REMARKS
FORT POLK      LGT RAIN  54  53  97 N7        30.11F FOG
6HR MIN TEMP:  51; 6HR MAX TEMP:  54; 6HR PCP:  0.57;

ALEXANDRIA INT RAIN      52  51  97 NE6       30.11F FOG
6HR MIN TEMP:  51; 6HR MAX TEMP:  52; 6HR PCP:  0.31;

ALEXANDRIA     RAIN      51  50  96 NE6       30.13F
6HR MIN TEMP:  51; 6HR MAX TEMP:  52; 6HR PCP:  0.40;


$$

LAZ001-002-191900-
NORTHWEST LOUISIANA

CITY           SKY/WX    TMP DP  RH WIND       PRES   REMARKS
SHREVEPORT     LGT RAIN  47  45  93 E15       30.13F FOG
6HR MIN TEMP:  47; 6HR MAX TEMP:  50; 6HR PCP:  1.31;

BARKSDALE AFB  NOT AVBL
DTN SHREVEPORT LGT RAIN  46  43  89 E10G18    30.17F
6HR MIN TEMP:  46; 6HR MAX TEMP:  49; 6HR PCP:  0.81;


$$

LAZ014-016-191900-
NORTHEAST LOUISIANA

CITY           SKY/WX    TMP DP  RH WIND       PRES   REMARKS
MONROE         LGT RAIN  47  45  93 N10       30.21F FOG
6HR MIN TEMP:  46; 6HR MAX TEMP:  47; 6HR PCP:  0.41;

TALLULAH       RAIN      47  44  90 NE7       30.18F
6HR MIN TEMP:  47; 6HR MAX TEMP:  50; 6HR PCP:  0.23;


$$




USA.gov is the U.S. government's official web portal to all federal, state and local government web resources and services.